Location: Dillon
(41.1766°N, 107.0923°W)
Time: 11:04:35
(UTC+00:00)

Tiangong - Pass Details

Date: 04 February 2022
Orbit: 386 x 391 km, 41.5° (Epoch: 16 May)

Event Time Altitude Azimuth Distance (km) Brightness Sun altitude
Rises 01:19:30 0° 277° (W) 2,327 6.5 -10.1°
Reaches altitude 10° 01:21:35 10° 277° (W) 1,472 5.3 -10.5°
Maximum altitude 01:24:56 86° 191° (S) 417 1.2 -11.1°
Enters shadow 01:27:25 17° 101° (E) 1,132 2.9 -11.6°
